CAPE
5 6 4 5 4 4 6 6 4 4 3 2 2 2 2 1 0 0 0 0 0 0 0 0 0 0 0 0 0 0 0 0 0 0 0 0 0 0 0 0 0 0 0 0 0
6 5 4 3 1 1 2 3 4 4 3 2 2 2 2 1 0 0 0 0 0 0 0 0 0 0 0 0 0 0 0 0 0 0 0 0 0 0 0 0 0 0 0 0 0
5 4 2 2 0 0 0 0 2 4 4 4 3 2 0 0 0 0 0 0 0 0 0 0 0 0 0 0 0 0 0 0 0 0 0 0 0 0 0 0 0 0 0 0 0
3 3 1 1 1 0 0 0 0 2 5 5 4 2 0 0 0 0 0 0 0 0 0 0 0 0 0 0 0 0 0 0 0 0 0 0 0 0 0 0 0 0 0 0 0
2 2 1 0 0 0 0 0 0 2 3 4 5 1 0 0 0 0 0 0 0 0 0 0 0 0 0 0 0 0 0 0 0 0 0 0 0 0 0 0 0 0 0 0 0
1 1 0 0 0 0 0 0 0 1 3 5 3 1 0 0 0 0 0 0 0 0 0 0 0 0 0 0 0 0 0 0 0 0 0 0 0 0 0 0 0 0 0 0 0
0 0 0 0 0 0 0 0 0 0 2 1 0 0 0 0 0 0 0 0 0 0 0 0 0 0 0 0 0 0 0 0 0 0 0 0 0 0 0 0 0 0 0 0 0
1 0 0 0 0 0 0 0 0 0 0 0 0 0 0 0 0 0 0 0 0 0 0 0 0 0 0 0 0 0 0 0 0 0 0 0 0 0 0 0 0 0 0 0 0
0 0 0 0 0 0 0 0 0 0 0 0 0 0 0 0 0 0 0 0 0 0 0 0 0 0 0 0 0 0 0 0 0 0 0 0 0 0 0 0 0 0 0 0 0
0 0 0 0 1 1 0 0 0 0 0 0 0 0 0 0 0 0 0 0 0 0 0 0 0 0 0 0 0 0 0 0 0 0 0 0 0 0 0 0 0 0 0 0 0
0 0 0 3 3 1 0 0 0 0 0 0 0 0 0 0 0 0 0 0 0 0 0 0 0 0 0 0 0 0 0 0 0 0 0 0 0 0 0 0 0 0 0 0 0
0 0 0 3 0 0 0 0 0 0 0 0 0 0 0 0 0 0 0 0 0 0 0 0 0 0 0 0 0 0 0 0 0 0 0 0 0 0 0 0 0 0 0 0 0
0 0 0 0 0 0 0 0 0 0 0 0 0 0 0 0 0 0 0 0 0 0 0 0 0 0 0 0 0 0 0 0 0 0 0 0 0 0 0 0 0 0 0 0 0
0 0 0 0 0 0 0 0 0 0 0 0 0 0 0 0 0 0 0 0 0 0 0 0 0 0 0 0 0 0 0 0 0 0 0 0 0 0 0 0 0 0 0 0 0
0 0 0 0 0 0 0 0 0 0 0 0 0 0 0 0 0 0 0 0 0 0 0 0 0 0 0 0 0 0 0 0 0 0 0 0 0 0 0 0 0 0 0 0 0
0 0 0 0 0 0 0 0 0 0 0 0 0 0 0 0 0 0 0 0 0 0 0 0 0 0 0 0 0 0 0 0 0 0 0 0 0 0 0 0 0 0 0 0 0
0 0 0 0 0 0 0 0 0 0 0 0 0 0 0 0 0 0 0 1 2 0 0 0 0 0 0 0 0 0 0 0 1 1 1 0 0 0 0 0 0 0 0 0 0
0 0 0 0 0 0 0 0 0 0 0 0 0 0 0 0 0 0 0 0 0 0 0 0 0 0 0 0 0 0 0 0 8 10 0 0 0 2 0 0 0 0 0 0 0
0 0 0 0 0 0 0 0 0 0 0 0 0 0 0 0 0 0 0 0 0 0 0 0 0 0 0 0 0 0 0 0 0 0 0 0 0 23 0 0 0 0 0 0 0
0 0 0 0 0 0 0 0 0 0 0 0 0 0 0 0 0 0 0 0 0 0 0 0 0 0 0 0 0 0 0 1 3 14 0 0 0 26 0 0 0 0 0 0 0
0 0 0 0 0 0 1 0 0 0 0 0 0 0 0 0 0 0 0 0 0 0 0 0 0 0 0 0 0 1 1 1 1 0 0 0 0 18 0 0 0 0 0 0 0
0 0 0 0 0 0 0 0 0 0 0 0 0 0 0 0 0 0 0 0 0 0 0 0 0 0 0 0 0 0 0 0 0 0 0 0 0 0 0 0 0 0 0 0 0
0 0 0 0 0 0 0 0 0 0 0 0 0 0 0 0 0 0 0 0 0 0 0 0 0 0 0 0 0 0 0 0 0 0 0 0 0 0 0 0 0 0 0 0 0
0 0 0 0 0 0 0 0 0 0 0 0 0 0 0 0 0 0 0 0 0 0 0 0 0 0 0 0 0 0 0 0 0 0 0 0 0 0 0 0 0 0 0 0 0
0 0 0 0 0 0 0 0 0 0 0 0 0 0 0 0 0 0 0 0 0 0 0 0 0 0 0 0 0 0 0 0 0 0 0 0 0 0 0 0 0 0 0 0 0
0 0 0 0 0 0 0 0 0 0 0 0 0 0 0 0 0 0 0 0 0 0 0 0 0 0 0 0 0 0 0 0 0 0 0 0 0 0 0 0 0 0 0 0 0
0 0 0 0 0 0 0 0 0 0 0 0 0 0 0 0 0 0 0 0 0 0 0 0 0 0 0 0 0 0 0 0 0 0 0 0 0 0 0 0 0 0 0 0 0
CIN
0 0 0 0 0 0 0 0 0 0 0 0 0 0 0 0 0 0 0 0 0 0 0 0 0 0 0 0 0 0 0 0 0 0 0 0 0 0 0 0 0 0 0 0 0
0 0 0 0 0 0 0 0 0 0 0 0 0 0 0 0 0 0 0 0 0 0 0 0 0 0 0 0 0 0 0 0 0 0 0 0 0 0 0 0 0 0 0 0 0
0 0 0 0 0 0 0 0 0 0 0 0 0 0 0 0 0 0 0 0 0 0 0 0 0 0 0 0 0 0 0 0 0 0 0 0 0 0 0 0 0 0 0 0 0
0 0 0 0 0 0 0 0 0 0 0 0 0 0 0 0 0 0 0 0 0 0 0 0 0 0 0 0 0 0 0 0 0 0 0 0 0 0 0 0 0 0 0 0 0
0 0 0 0 0 0 0 0 0 0 0 0 0 0 0 0 0 0 0 0 0 0 0 0 0 0 0 0 0 0 0 0 0 0 0 0 0 0 0 0 0 0 0 0 0
0 0 0 0 0 0 0 0 0 0 0 0 0 0 0 0 0 0 0 0 0 0 0 0 0 0 0 0 0 0 0 0 0 0 0 0 0 0 0 0 0 0 0 0 0
0 0 0 0 0 0 0 0 0 0 0 0 0 0 0 0 0 0 0 0 0 0 0 0 0 0 0 0 0 0 0 0 0 0 0 0 0 0 0 0 0 0 0 0 0
0 0 0 0 0 0 0 0 0 0 0 0 0 0 0 0 0 0 0 0 0 0 0 0 0 0 0 0 0 0 0 0 0 0 0 0 0 0 0 0 0 0 0 0 0
0 0 0 0 0 0 0 0 0 0 0 0 0 0 0 0 0 0 0 0 0 0 0 0 0 0 0 0 0 0 0 0 0 0 0 0 0 0 0 0 0 0 0 0 0
0 0 0 0 0 0 0 0 0 0 0 0 0 0 0 0 0 0 0 0 0 0 0 0 0 0 0 0 0 0 0 0 0 0 0 0 0 0 0 0 0 0 0 0 0
0 0 0 0 0 0 0 0 0 0 0 0 0 0 0 0 0 0 0 0 0 0 0 0 0 0 0 0 0 0 0 0 0 0 0 0 0 0 0 0 0 0 0 0 0
0 0 0 0 0 0 0 0 0 0 0 0 0 0 0 0 0 0 0 0 0 0 0 0 0 0 0 0 0 0 0 0 0 0 0 0 0 0 0 0 0 0 0 0 0
0 0 0 0 0 0 0 0 0 0 0 0 0 0 0 0 0 0 0 0 0 0 0 0 0 0 0 0 0 0 0 0 0 0 0 0 0 0 0 0 0 0 0 0 0
0 0 0 0 0 0 0 0 0 0 0 0 0 0 0 0 0 0 0 0 0 0 0 0 0 0 0 0 0 0 0 0 0 0 0 0 0 0 0 0 0 0 0 0 0
0 0 0 0 0 0 0 0 0 0 0 0 0 0 0 0 0 0 0 0 0 0 0 0 0 0 0 0 0 0 0 0 0 0 0 0 0 0 0 0 0 0 0 0 0
0 0 0 0 0 0 0 0 0 0 0 0 0 0 0 0 0 0 0 0 0 0 0 0 0 0 0 0 0 0 0 0 0 0 0 0 0 0 0 0 0 0 0 0 0
0 0 0 0 0 0 0 0 0 0 0 0 0 0 0 0 0 0 0 -57 -38 0 0 0 0 0 0 0 0 0 0 0 -2 0 -2 0 0 0 0 0 0 0 0 0 0
0 0 0 0 0 0 0 0 0 0 0 0 0 0 0 0 0 0 0 0 0 0 0 0 0 0 0 0 0 0 0 -1 -5 -7 0 0 0 -40 0 0 0 0 0 0 0
0 0 0 0 0 0 0 0 0 0 0 0 0 0 0 0 0 0 0 0 0 0 0 0 0 0 0 0 0 0 -2 0 0 0 0 0 0 -32 0 0 0 0 0 0 0
0 0 0 0 0 0 0 0 0 0 0 0 0 0 0 0 0 0 0 0 0 0 0 0 0 0 0 0 0 0 0 -15 -1 -6 0 0 0 -18 0 0 0 0 0 0 0
0 0 0 0 0 0 -3 0 0 0 0 0 0 0 0 0 0 0 0 0 0 0 0 0 0 0 0 0 0 -18 -15 -10 -10 0 0 0 0 -69 0 0 0 0 0 0 0
0 0 0 0 0 0 0 0 0 0 0 0 0 0 0 0 0 0 0 0 0 0 0 0 0 0 0 0 0 0 0 0 0 0 0 0 0 0 0 0 0 0 0 0 0
0 0 0 0 0 0 0 0 0 0 0 0 0 0 0 0 0 0 0 0 0 0 0 0 0 0 0 0 0 0 -2 -2 0 0 0 0 0 0 0 0 0 0 0 0 0
0 0 0 0 0 0 0 0 0 0 0 0 0 0 0 0 0 0 0 0 0 0 0 0 0 0 0 0 0 0 0 0 0 0 0 0 0 0 0 0 0 0 0 0 0
0 0 0 0 0 0 0 0 0 0 0 0 0 0 0 0 0 0 0 0 0 0 0 0 0 0 0 0 0 0 0 0 0 0 0 0 0 0 0 0 0 0 0 0 0
0 0 0 0 0 0 0 0 0 0 0 0 0 0 0 0 0 0 0 0 0 0 0 0 0 0 0 0 0 0 0 0 0 0 0 0 0 0 0 0 0 0 0 0 0
0 0 0 0 0 0 0 0 0 0 0 0 0 -1 0 0 0 0 0 0 0 0 0 0 0 0 0 0 0 0 0 0 0 0 0 0 0 0 0 0 0 0 0 0 0
Wind_Speed
16 17 17 17 16 16 16 16 15 14 14 13 13 13 14 15 16 11 10 3 5 2 3 6 8 2 4 2 2 1 3 5 7 7 6 9 8 7 7 9 10 9 10 10 12
17 17 17 17 17 17 17 16 16 15 14 13 13 12 13 13 10 12 5 11 7 2 5 4 4 5 4 2 2 3 3 5 5 6 8 11 11 12 12 14 15 12 11 10 11
18 18 18 18 18 18 18 17 17 16 14 13 12 11 11 10 7 2 15 12 7 4 3 3 4 3 6 3 4 4 5 7 10 8 8 13 13 13 15 18 15 13 9 10 9
18 19 19 20 19 19 19 19 18 16 15 13 11 10 10 5 5 6 11 10 7 4 3 2 5 4 4 6 5 4 9 11 10 10 10 13 15 18 15 24 16 17 15 11 10
19 19 19 20 20 19 19 19 19 18 16 13 9 7 6 6 9 12 11 9 6 4 5 4 6 4 7 7 7 12 11 13 10 13 12 15 16 15 22 18 17 16 15 11 10
20 20 20 20 21 20 20 20 19 18 16 11 7 5 4 7 4 12 9 7 6 6 4 4 4 5 7 8 6 8 11 15 13 12 9 14 13 8 16 15 16 14 10 10 10
20 20 21 21 21 21 21 20 20 19 13 6 5 6 8 12 1 9 8 6 6 6 6 3 3 4 7 7 6 8 12 14 13 10 3 5 9 12 17 13 12 11 11 9 9
23 23 23 23 22 22 22 21 19 17 8 5 6 7 8 4 3 7 9 6 5 3 3 3 2 6 5 6 6 5 7 5 4 8 5 6 11 8 9 13 16 16 14 11 11
24 25 25 24 24 23 23 21 18 9 4 6 6 6 7 1 3 9 8 7 8 4 2 3 2 5 4 5 6 8 5 8 9 7 3 7 12 10 12 14 13 9 8 9 9
25 26 26 25 23 23 23 22 4 3 7 8 7 4 4 1 5 5 9 8 4 6 5 4 5 4 5 6 5 4 8 10 10 5 7 8 18 15 12 11 10 7 8 7 6
27 27 26 24 23 22 12 1 2 3 6 8 4 9 15 7 4 5 5 7 7 5 5 7 5 9 10 10 10 8 9 12 12 11 2 7 15 17 12 8 6 8 6 8 6
28 27 25 24 23 19 8 4 5 2 11 11 10 6 5 1 4 7 6 7 6 9 12 5 10 13 8 4 7 8 11 15 11 2 4 11 20 18 11 1 3 5 7 7 8
29 27 24 24 21 9 9 10 7 8 6 7 3 2 3 3 4 3 8 5 8 10 11 9 11 3 5 7 10 10 11 13 10 8 9 8 11 5 6 4 4 7 6 5 6
29 26 23 27 3 4 4 10 8 6 4 4 4 3 3 4 3 2 5 6 5 5 4 9 8 3 7 9 8 13 4 5 6 5 3 7 6 9 9 8 5 10 8 7 7
28 23 22 14 7 4 8 9 7 3 5 4 4 2 1 4 2 3 1 3 7 9 2 8 7 6 8 8 7 5 2 6 7 6 6 4 3 7 6 7 10 8 8 7 7
26 20 21 3 3 6 9 10 4 1 8 4 3 5 11 3 4 4 4 3 6 5 8 15 9 5 5 7 5 8 7 13 9 3 3 10 6 7 5 8 7 9 7 9 11
24 15 8 5 5 10 9 4 2 3 5 5 8 8 13 4 3 5 4 6 4 4 4 11 7 3 3 5 6 4 6 4 1 2 6 5 2 10 2 8 11 10 8 9 9
24 12 4 6 7 7 4 3 4 5 6 10 10 17 8 5 3 2 4 7 9 8 5 4 6 7 6 3 3 7 5 3 4 1 3 6 5 5 9 10 10 9 9 10 9
22 3 1 7 6 4 3 2 5 7 8 13 17 10 5 5 3 7 4 7 7 11 4 6 4 2 6 3 1 3 4 2 4 5 1 5 5 3 9 9 8 12 12 10 10
5 3 2 9 4 3 3 2 4 8 10 9 6 8 9 13 11 10 8 8 8 12 10 5 8 8 1 2 8 6 5 1 2 3 5 4 4 6 7 7 11 11 9 9 9
3 3 4 12 1 3 3 4 4 9 10 7 8 9 8 12 12 8 5 5 9 12 10 7 5 8 12 5 8 3 3 5 4 3 3 2 6 5 9 11 11 9 8 9 11
4 3 6 8 3 3 3 4 8 10 11 6 7 8 6 9 7 7 7 6 9 11 8 6 5 6 13 18 17 9 5 7 3 7 4 6 9 6 10 19 13 10 10 8 9
6 3 5 5 5 5 3 2 4 9 8 6 6 6 8 6 6 9 7 3 10 10 9 8 5 5 9 4 6 5 10 7 9 5 5 4 5 4 7 16 12 10 8 7 9
4 4 5 5 4 5 5 4 5 4 2 6 5 3 11 7 7 9 11 3 13 9 15 4 5 7 9 15 16 14 16 15 12 7 6 12 14 14 18 15 14 14 11 11 9
4 3 1 4 5 6 3 5 7 8 6 6 3 9 9 5 16 6 14 15 9 16 2 3 5 8 11 16 18 21 20 18 16 14 12 16 18 15 12 10 9 8 10 7 11
5 5 5 4 3 5 1 7 7 9 7 6 7 11 10 11 12 17 16 10 8 6 5 8 6 14 14 15 19 21 18 19 19 15 19 18 18 7 8 9 12 12 14 10 12
4 1 3 5 4 5 4 6 8 7 7 3 11 14 12 11 11 13 15 17 18 17 15 14 7 6 7 10 14 8 6 7 9 7 7 5 6 10 11 15 17 16 11 12 13
Wind_Direction
356 356 354 351 348 345 340 335 329 324 318 315 316 317 317 318 311 282 253 111 118 115 308 261 245 8 267 243 284 353 268 259 297 330 329 340 318 301 295 284 269 259 262 272 287
355 352 350 347 345 341 339 334 329 324 319 315 314 317 318 322 295 266 147 128 128 141 251 336 344 336 265 227 213 241 265 264 7 331 309 307 303 300 299 287 275 273 261 250 254
353 350 347 345 342 338 335 333 327 322 317 312 311 313 316 319 279 95 130 133 149 195 280 304 295 276 274 152 227 236 242 322 316 311 318 297 286 287 286 276 270 272 261 260 256
351 349 346 343 339 337 333 330 326 320 316 309 306 310 315 275 309 111 140 142 157 237 233 271 247 250 288 248 196 266 252 269 291 303 304 285 290 281 273 269 280 278 274 273 268
349 346 344 339 336 333 330 327 323 318 312 301 293 300 293 230 251 133 140 150 167 206 236 272 279 315 265 326 305 268 269 267 287 298 279 276 269 268 272 269 267 260 261 254 249
347 345 341 336 332 330 328 325 322 318 312 294 279 287 240 242 98 146 163 157 201 207 215 241 326 341 286 262 275 300 306 295 286 265 260 270 279 274 273 264 264 267 263 238 246
344 341 336 332 329 326 324 321 318 315 306 266 230 234 253 248 110 148 170 191 205 231 265 197 319 273 333 271 296 306 297 283 254 241 257 10 282 223 251 263 251 251 253 251 228
343 338 334 330 326 323 319 316 314 309 296 221 209 230 259 45 310 180 194 185 189 216 268 30 268 269 250 313 298 230 238 293 134 174 174 110 275 291 317 322 289 274 263 246 235
342 336 332 329 324 320 314 308 302 275 224 180 196 225 271 175 214 213 217 218 189 209 235 207 227 236 247 236 273 200 262 267 303 172 186 187 278 277 285 289 293 290 284 255 235
341 336 331 328 324 320 314 300 321 181 203 201 259 249 214 240 142 204 196 223 198 197 236 223 220 242 213 216 243 288 276 295 293 294 225 256 276 296 300 287 283 307 313 275 247
341 336 332 329 325 320 328 329 216 185 230 241 253 261 310 88 118 185 174 215 219 209 237 177 236 223 238 235 261 308 301 284 283 281 284 267 277 285 291 272 334 323 325 349 249
342 337 333 330 329 317 294 13 37 288 304 269 286 312 318 80 243 179 180 204 194 229 222 226 249 243 281 330 293 284 282 276 280 221 269 294 289 284 264 37 300 305 59 21 5
343 338 333 330 326 315 64 30 335 327 264 297 64 353 43 184 257 174 182 207 265 250 252 219 249 250 270 277 276 260 259 270 279 341 290 270 283 237 147 191 262 53 76 78 61
343 337 333 327 328 317 65 346 324 324 285 197 142 126 177 251 201 56 200 272 246 270 295 260 276 303 286 261 258 274 313 332 316 328 263 32 287 305 165 188 101 59 49 36 32
342 336 329 341 309 35 321 323 312 248 350 28 71 54 231 264 97 142 247 202 254 280 251 259 303 235 256 250 261 264 63 284 280 273 309 274 155 260 162 121 98 81 57 21 16
340 337 327 27 262 16 319 303 270 285 256 45 74 4 350 189 183 122 206 220 282 286 242 255 266 218 226 319 292 310 302 267 228 208 270 213 170 282 170 134 112 95 55 23 7
338 329 327 333 331 317 314 282 317 204 33 15 339 344 315 297 294 170 255 213 246 301 310 319 261 111 71 272 211 235 266 302 0 188 229 88 73 243 88 89 101 92 54 32 358
332 319 227 43 331 315 289 247 248 7 11 3 336 304 258 27 350 288 240 261 60 357 302 271 303 163 156 256 335 257 272 213 280 209 278 174 238 284 102 94 99 81 65 31 359
319 206 255 342 328 305 293 312 4 11 352 329 318 300 314 131 354 322 347 29 50 27 348 325 298 75 205 287 187 350 216 303 293 275 294 236 246 359 124 113 96 63 44 23 17
321 283 46 340 324 271 264 60 49 28 347 326 291 355 340 341 328 351 305 22 357 18 337 301 298 277 163 237 239 232 1 299 254 235 234 242 248 194 122 102 70 51 32 23 13
274 281 336 341 231 251 30 30 15 2 8 334 337 312 336 342 343 306 315 54 16 348 328 336 262 292 312 242 279 213 256 210 257 246 262 314 282 88 131 81 75 53 28 21 18
301 324 336 338 49 41 36 12 3 355 9 340 337 325 321 337 306 297 13 55 38 359 351 356 294 276 271 272 265 278 311 302 254 274 248 238 256 275 156 82 69 42 35 21 24
324 303 359 3 48 12 30 39 74 13 16 355 342 358 350 296 309 327 7 112 41 6 1 344 311 320 306 256 30 24 335 334 303 288 247 262 266 127 104 61 47 33 38 4 17
317 340 350 53 41 1 5 40 350 103 323 337 301 324 348 323 317 303 306 324 348 321 323 242 244 255 262 299 324 301 308 306 304 277 308 261 284 308 334 17 27 18 6 354 16
10 61 19 353 21 334 25 31 356 10 346 320 263 31 354 306 315 261 335 320 317 301 259 269 262 288 302 308 301 290 289 291 277 273 267 287 288 309 349 11 20 359 339 335 14
14 355 345 294 273 323 68 46 16 357 319 323 342 332 326 300 296 310 321 321 277 310 339 329 287 319 296 272 260 270 278 270 269 276 269 276 286 358 9 3 10 346 329 22 6
354 61 270 277 345 359 35 357 331 329 304 347 329 314 305 320 328 297 285 274 266 277 283 281 274 304 271 315 327 287 316 323 292 330 341 10 28 5 5 358 355 332 14 7 354